sat.trackr.live / text

‹ back to catalog

QPS-SAR-14 (YACHIHOKO-I)

NORAD 66316 · 2025-252A

PAYLOAD ACTIVE UNKNOWN

§ Identity

Operator
Country
JPN
Launch date
2025-11-05
Launch site
RLLB
Launch vehicle
Mass (kg)
RCS (m²)

External: N2YO · Heavens-Above · Gunter

§ Orbital elements

Epoch: 2026-05-25T00:23:54.462048Z

Period
96.03 min
Inclination
42.0044°
Eccentricity
0.0005005
Mean motion
14.99473720 rev/d
Perigee alt
565.0 km
Apogee alt
572.0 km
Semi-major
6,946.7 km
B*
3.2989e-4
RAAN
259.1860°
Arg perigee
112.3607°
Mean anomaly
247.7749°
Rev number
3,003

§ Raw data

QPS-SAR-14 (YACHIHOKO-I)1 66316U 25252A   26145.01660257  .00003933  00000+0  32989-3 0  99942 66316  42.0044 259.1860 0005005 112.3607 247.7749 14.99473720 30031

JSON: /api/v1/satellites/66316 · /tle

For live sub-satellite position, see the globe view (requires WebGL).

§ Visibility from observer

Set your observer location to see the next 7 days of passes ≥ 10°. The values pass through the URL so the page stays shareable.

No JS? Fill the form by hand. The geolocation button needs JavaScript.